Home   Weather   Neuwied   Past weeks

Flag for Germany Past Weather in Neuwied, Rhineland-Palatinate, Germany — Yesterday and Last 2 Weeks

Now
43 °F

Quite cool.


Feels Like: 40 °F
Forecast: 33 / 60 °F
Wind: 5 mph from North

Location: Buechel

Current Time: Apr 23, 2017 at 9:52:24 pm

Latest Report: Apr 23, 2017 at 8:20 pm


Visibility: 6 mi

Pressure: 30.21 "Hg

Humidity: 53%

Dew Point: 27 °F

Location of NeuwiedLocation

Past Weather in Neuwied — Graph

°F

Neuwied Temperature Yesterday

Maximum temperature yesterday: 46 °F (at 12:20 am)
Minimum temperature yesterday: 39 °F (at 10:20 am)
Average temperature yesterday: 44 °F

High & Low Weather Summary for the Past Weeks

 TemperatureHumidityPressure
High68 °F (Apr 9, 3:20 pm)100% (Apr 17, 10:20 am)30.57 "Hg (Apr 17, 10:20 am)
Low28 °F (Apr 20, 6:20 am)23% (Apr 9, 6:20 pm)29.89 "Hg (Apr 17, 9:20 am)
Average44 °F64%30.18 "Hg
* Reported Apr 8 8:20 pm — Apr 23 8:20 pm, Neuwied, Weather by CustomWeather, © 2017

Note: Actual official high and low records may vary slightly from our data, if they occured in-between our weather recording intervals... More about our weather records

Advertising

Neuwied Weather History for the Previous 24 Hours

Scroll right to see more
 ConditionsComfort  
Time TempWeatherWind HumidityBarometerVisibility
8:20 pm
Sun, Apr 23
43 °FQuite cool.5 mph53%30.21 "Hg6 mi
7:20 pm45 °FQuite cool.5 mph49%30.21 "Hg6 mi
6:20 pm45 °FQuite cool.7 mph46%30.21 "Hg6 mi
5:20 pm45 °FQuite cool.7 mph46%30.24 "Hg5 mi
4:20 pm45 °FQuite cool.9 mph46%30.24 "Hg6 mi
3:20 pm45 °FQuite cool.9 mph46%30.24 "Hg6 mi
2:20 pm45 °FQuite cool.10 mph42%30.24 "Hg6 mi
1:20 pm45 °FQuite cool.9 mph46%30.24 "Hg6 mi
12:20 pm41 °FQuite cool.8 mph53%30.27 "Hg5 mi
11:20 am41 °FQuite cool.7 mph57%30.27 "Hg5 mi
10:20 am39 °FChilly.6 mph65%30.27 "Hg5 mi
9:20 am37 °FChilly.8 mph75%30.24 "Hg4 mi
8:20 am36 °FChilly.5 mph81%30.24 "Hg5 mi
7:20 am32 °FChilly.2 mph87%30.24 "Hg4 mi
6:20 am32 °FChilly.5 mph87%30.21 "Hg4 mi
5:20 am34 °FChilly.6 mph81%30.21 "Hg4 mi
4:20 am34 °FChilly.8 mph81%30.21 "Hg4 mi
3:20 am36 °FChilly.6 mph75%30.21 "Hg4 mi
2:20 am36 °FChilly.5 mph75%30.24 "Hg4 mi
1:20 am37 °FChilly.7 mph70%30.24 "Hg4 mi
12:20 am37 °FChilly.5 mph70%30.24 "Hg4 mi
11:20 pm
Sat, Apr 22
39 °FChilly.8 mph65%30.24 "Hg4 mi
10:20 pm41 °FQuite cool.9 mph66%30.24 "Hg4 mi
9:20 pm41 °FQuite cool.10 mph66%30.21 "Hg4 mi
Weather by CustomWeather, © 2017

See weather overviewHow to use our weather pages